Powrót do katalogu

STARLINK-11119

AktywnyŁącznośćVLEO
NORAD 60121·PAYLOAD·🇺🇸 United States

Wystrzelony Jun 24, 2024 z Vandenberg Space Force Base

Loading…

Następne Przeloty (najbliższe 24 godziny)

TLE

ŚwieżeSource: CelesTrak SupGP

Epoka: Sep 14, 2026, 15:06 UTC

1 60121C 24118J   26257.62965278 -.00004837  00000+0 -39858-4 0  2570
2 60121  53.1573   9.6029 0001100  91.4120 206.8687 15.69702453    11

Śledź STARLINK-11119 w czasie rzeczywistym z AllMySat

Download on the App Store